Weather in Verhnyaya Maksakovka

Russia / Komi Republic     61°37′59″N   50°58′01″E
temp.,
°C
wind,
m/s
gust,
m/s
humid.,
%
clouds,
%
prec.,
mm/h
press.,
hPa
HPBL,
m
29 july, thu
thu2900:00+11w3866100 0.0 1006228
03:00+11w12706 0.0 100651
06:00+11nne118616 0.1 100541
09:00+14e117595 0.2 1005449
12:00+20sw125259 0.0 10041134
15:00+22nne1346100 0.0 10031286
18:00+17e4766100 0.0 1002364
21:00+14ese31077100 0.0 1001338
30 july, fri
fri3000:00+12ese2493100 0.2 1000147
03:00+12nne0197100 0.2 99946
06:00+14ene119199 0.3 998176
09:00+19ese117188 0.4 998803
12:00+17e118276 2.3 1000316
15:00+16sw1188100 4.8 100115
18:00+15sw1193100 0.2 100228
21:00+14se2295100 0.3 100244
31 july, sat
sat3100:00+13sse25975 0.0 1002118
03:00+13sse2798100 0.1 1001198
06:00+15sse3797100 0.3 1001291
09:00+18ssw4988100 0.6 1000604
12:00+17s2693100 1.6 999475
15:00+16sse2499100 8.6 998178
18:00+17se0199100 1.9 99696
21:00+15w399731 3.2 997413
1 august, sun
sun100:00+14w41097100 0.6 997738
03:00+13wsw2797100 1.7 999234
06:00+14wsw39945 0.1 1001342
09:00+19w47677 0.1 1002616
12:00+23w46450 0.0 10031715
15:00+20wsw2660100 0.0 1004211
18:00+19wsw2868100 0.0 1005341
21:00+16sw378364 0.0 1006143
2 august, mon
mon200:00+14sw25927 0.0 100689
03:00+15ssw26908 0.0 1006142
06:00+16ssw288081 0.0 1006244
09:00+21sw366345 0.0 1006570
12:00+25ssw4648100 0.3 10051924
15:00+23sw4660100 0.5 10051316
18:00+20sw268396 0.7 1005310
21:00+17sw239510 0.9 100579